GW1011 Weather Reports


Display with metric or nautical units.
time (UTC)temp
F
wind
direction
speed
MPH
gust
MPH
rain 1hr
in
rain 24hr
in
rain mn
in
humidity
%
barometer
mb
20240301234516 64 0 0.0 9.0 0.00 0.00 0.00 21 1006.8
20240301233030 65 0 0.0 7.0 0.00 0.00 0.00 19 1006.5
20240301231515 66 169 0.0 6.0 0.00 0.00 0.00 19 1006.7
20240301230027 66 0 0.0 5.0 0.00 0.00 0.00 20 1007.3
20240301224520 66 0 0.0 6.0 0.00 0.00 0.00 21 1007.6
20240301223018 66 0 0.0 6.0 0.00 0.00 0.00 21 1007.5
20240301221532 66 0 0.0 6.0 0.00 0.00 0.00 20 1008.0
20240301220020 67 173 1.0 10.0 0.00 0.00 0.00 18 1008.0
20240301214520 67 0 1.0 9.0 0.00 0.00 0.00 18 1008.4
20240301213019 66 198 1.0 12.0 0.00 0.00 0.00 18 1008.7
20240301211518 66 0 1.0 11.0 0.00 0.00 0.00 21 1009.0
20240301210021 66 0 0.0 12.0 0.00 0.00 0.00 20 1008.9
20240301204519 66 0 1.0 15.0 0.00 0.00 0.00 20 1008.8
20240301203019 66 170 2.0 15.0 0.00 0.00 0.00 23 1009.1
20240301201519 67 0 2.0 12.0 0.00 0.00 0.00 19 1009.5
20240301200017 66 0 0.0 7.0 0.00 0.00 0.00 23 1009.6
20240301194527 65 0 0.0 10.0 0.00 0.00 0.00 27 1010.3
20240301193017 65 0 0.0 13.0 0.00 0.00 0.00 27 1010.6
20240301191517 64 0 0.0 13.0 0.00 0.00 0.00 28 1011.0
20240301190026 63 0 1.0 11.0 0.00 0.00 0.00 30 1011.2
20240301184517 62 175 2.0 15.0 0.00 0.00 0.00 31 1011.4
20240301183016 63 173 0.0 7.0 0.00 0.00 0.00 32 1011.5
20240301181530 62 0 0.0 8.0 0.00 0.00 0.00 32 1011.7
20240301180019 62 184 0.0 4.0 0.00 0.00 0.00 33 1011.8
20240301174520 61 0 0.0 8.0 0.00 0.00 0.00 34 1011.9
20240301173017 60 0 0.0 6.0 0.00 0.00 0.00 35 1011.8
20240301171517 59 0 0.0 6.0 0.00 0.00 0.00 38 1011.9
20240301170020 56 0 0.0 1.0 0.00 0.00 0.00 42 1011.9
20240301164520 55 0 0.0 1.0 0.00 0.00 0.00 44 1011.9
20240301163019 54 0 0.0 3.0 0.00 0.00 0.00 46 1011.8
20240301161519 52 0 0.0 1.0 0.00 0.00 0.00 48 1011.9
20240301160023 51 0 0.0 0.0 0.00 0.00 0.00 53 1011.8
20240301154517 49 0 0.0 0.0 0.00 0.00 0.00 56 1011.5
20240301153021 49 0 0.0 0.0 0.00 0.00 0.00 58 1011.7
20240301151528 48 0 0.0 0.0 0.00 0.00 0.00 59 1011.6
20240301150027 48 0 0.0 0.0 0.00 0.00 0.00 60 1011.7
20240301144520 48 0 0.0 0.0 0.00 0.00 0.00 61 1011.6
20240301143017 48 0 0.0 0.0 0.00 0.00 0.00 60 1011.2
20240301141524 48 0 0.0 0.0 0.00 0.00 0.00 59 1011.0
20240301140018 48 0 0.0 0.0 0.00 0.00 0.00 59 1010.9
20240301134519 48 0 0.0 0.0 0.00 0.00 0.00 58 1010.8
20240301133019 49 0 0.0 0.0 0.00 0.00 0.00 56 1010.6
20240301131519 50 0 0.0 0.0 0.00 0.00 0.00 55 1010.3
20240301130019 50 0 0.0 0.0 0.00 0.00 0.00 53 1010.5
20240301124519 51 0 0.0 0.0 0.00 0.00 0.00 53 1010.0
20240301123017 51 0 0.0 0.0 0.00 0.00 0.00 53 1010.0
20240301121519 51 0 0.0 5.0 0.00 0.00 0.00 54 1009.7
20240301120023 51 0 0.0 6.0 0.00 0.00 0.00 55 1009.6
20240301114529 51 0 2.0 9.0 0.00 0.00 0.00 55 1009.6
20240301113018 51 0 0.0 5.0 0.00 0.00 0.00 56 1009.6
20240301111517 51 0 0.0 7.0 0.00 0.00 0.00 55 1009.5
20240301110016 52 0 0.0 8.0 0.00 0.00 0.00 55 1009.5
20240301104519 52 0 0.0 7.0 0.00 0.00 0.00 55 1009.6
20240301103023 52 0 0.0 6.0 0.00 0.00 0.00 55 1009.7
20240301101519 52 0 0.0 9.0 0.00 0.00 0.00 55 1009.6
20240301100033 53 0 0.0 10.0 0.00 0.00 0.00 54 1009.7
20240301094518 53 0 0.0 9.0 0.00 0.00 0.00 55 1010.1
20240301093019 53 0 1.0 10.0 0.00 0.00 0.00 55 1010.4
20240301091525 53 0 2.0 11.0 0.00 0.00 0.00 54 1010.4
20240301090019 53 205 0.0 8.0 0.00 0.00 0.00 54 1010.1
20240301084540 54 0 0.0 6.0 0.00 0.00 0.00 53 1009.9
20240301083015 55 178 1.0 13.0 0.00 0.00 0.00 50 1009.4
20240301081519 55 189 1.0 9.0 0.00 0.00 0.00 49 1009.1
20240301080023 56 184 1.0 10.0 0.00 0.00 0.00 47 1009.1
20240301074541 56 183 2.0 11.0 0.00 0.00 0.00 46 1008.9
20240301073019 57 0 0.0 7.0 0.00 0.00 0.00 43 1009.0
20240301071522 57 0 0.0 6.0 0.00 0.00 0.00 41 1009.1
20240301070021 57 159 0.0 5.0 0.00 0.00 0.00 40 1009.3
20240301064521 57 175 0.0 9.0 0.00 0.00 0.00 41 1009.6
20240301063021 57 0 0.0 4.0 0.00 0.00 0.00 43 1009.5
20240301061533 57 0 0.0 2.0 0.00 0.00 0.00 43 1009.6
20240301060037 58 0 0.0 2.0 0.00 0.00 0.00 42 1010.3
20240301054521 58 0 0.0 2.0 0.00 0.00 0.00 41 1010.6
20240301053018 59 0 0.0 1.0 0.00 0.00 0.00 39 1010.6
20240301051517 59 0 0.0 2.0 0.00 0.00 0.00 37 1010.5
20240301050024 60 0 0.0 2.0 0.00 0.00 0.00 35 1010.3
20240301044526 60 0 0.0 2.0 0.00 0.00 0.00 35 1010.4
20240301043017 60 0 0.0 0.0 0.00 0.00 0.00 33 1010.4
20240301041523 61 0 0.0 3.0 0.00 0.00 0.00 33 1010.3
20240301040020 61 0 0.0 2.0 0.00 0.00 0.00 33 1010.3
20240301034523 61 0 0.0 3.0 0.00 0.00 0.00 33 1010.4
20240301033018 61 0 0.0 4.0 0.00 0.00 0.00 34 1010.1
20240301031519 62 0 0.0 5.0 0.00 0.00 0.00 33 1009.7
20240301030028 62 0 0.0 5.0 0.00 0.00 0.00 34 1009.5
20240301024520 62 0 0.0 6.0 0.00 0.00 0.00 33 1009.8
20240301023018 62 0 0.0 0.0 0.00 0.00 0.00 32 1010.2
20240301021517 62 0 0.0 3.0 0.00 0.00 0.00 31 1010.2
20240301020030 63 0 0.0 2.0 0.00 0.00 0.00 30 1010.2
20240301014520 63 0 0.0 2.0 0.00 0.00 0.00 29 1010.1
20240301013021 64 0 0.0 3.0 0.00 0.00 0.00 28 1010.2
20240301011519 65 0 0.0 2.0 0.00 0.00 0.00 26 1010.1
20240301010021 66 0 0.0 7.0 0.00 0.00 0.00 26 1009.9
20240301004522 66 0 0.0 8.0 0.00 0.00 0.00 24 1009.7
20240301003029 67 0 0.0 0.0 0.00 0.00 0.00 24 1009.8
20240301001520 67 0 0.0 3.0 0.00 0.00 0.00 24 1009.9
20240301000020 67 0 0.0 5.0 0.00 0.00 0.00 23 1009.7